Time,TemperatureF,DewpointF,PressureIn,WindDirection,WindDirectionDegrees,WindSpeedMPH,WindSpeedGustMPH,Humidity,HourlyPrecipIn,Conditions,Clouds,dailyrainin,SoftwareType,DateUTC
2013-03-07 00:00:00,40.6,32.7,29.92,NW,325,8.0,11.0,73,0.00,,,0.90,meteohub,2013-03-07 05:00:00,
2013-03-07 00:01:00,40.6,32.7,29.92,North,0,5.0,11.0,73,0.00,,,0.90,meteohub,2013-03-07 05:01:00,
2013-03-07 00:06:00,40.6,32.7,29.92,North,352,5.0,10.0,73,0.00,,,0.00,meteohub,2013-03-07 05:06:00,
2013-03-07 00:11:00,40.6,32.7,29.92,NW,307,6.0,10.0,73,0.00,,,0.00,meteohub,2013-03-07 05:11:00,
2013-03-07 00:16:00,40.6,32.7,29.92,NNW,334,8.0,11.0,73,0.00,,,0.00,meteohub,2013-03-07 05:16:00,
2013-03-07 00:21:00,40.6,32.7,29.92,NNW,333,5.0,12.0,73,0.00,,,0.00,meteohub,2013-03-07 05:21:00,
2013-03-07 00:26:00,40.6,32.7,29.93,NNW,330,9.0,12.0,73,0.00,,,0.00,meteohub,2013-03-07 05:26:00,
2013-03-07 00:31:00,40.6,32.7,29.93,NNW,341,9.0,13.0,73,0.00,,,0.00,meteohub,2013-03-07 05:31:00,
2013-03-07 00:36:00,40.5,32.5,29.93,NNW,338,3.0,13.0,73,0.00,,,0.00,meteohub,2013-03-07 05:36:00,
2013-03-07 00:41:00,40.6,32.4,29.92,NW,305,4.0,13.0,72,0.00,,,0.00,meteohub,2013-03-07 05:41:00,
2013-03-07 00:46:00,40.6,32.4,29.93,NNW,327,6.0,13.0,72,0.00,,,0.00,meteohub,2013-03-07 05:46:00,
2013-03-07 00:52:00,40.6,32.4,29.93,NW,323,6.0,13.0,72,0.00,,,0.00,meteohub,2013-03-07 05:52:00,
2013-03-07 00:57:00,40.6,32.7,29.93,NNW,345,8.0,13.0,73,0.00,,,0.00,meteohub,2013-03-07 05:57:00,
2013-03-07 01:02:00,40.6,32.4,29.93,NNW,342,4.0,13.0,72,0.00,,,0.00,meteohub,2013-03-07 06:02:00,
2013-03-07 01:07:00,40.6,32.4,29.93,North,349,7.0,11.0,72,0.00,,,0.00,meteohub,2013-03-07 06:07:00,
2013-03-07 01:12:00,40.6,32.4,29.93,NNW,334,10.0,12.0,72,0.00,,,0.00,meteohub,2013-03-07 06:12:00,
2013-03-07 01:17:00,40.6,32.4,29.93,NNW,333,3.0,12.0,72,0.00,,,0.00,meteohub,2013-03-07 06:17:00,
2013-03-07 01:21:00,40.6,32.4,29.93,NNW,343,7.0,12.0,72,0.00,,,0.00,meteohub,2013-03-07 06:21:00,
2013-03-07 01:26:00,40.6,32.4,29.93,North,354,2.0,12.0,72,0.00,,,0.00,meteohub,2013-03-07 06:26:00,
2013-03-07 01:31:00,40.6,32.0,29.93,NW,326,3.0,12.0,71,0.00,,,0.00,meteohub,2013-03-07 06:31:00,
2013-03-07 01:37:00,40.6,32.0,29.93,NNW,335,13.0,13.0,71,0.00,,,0.00,meteohub,2013-03-07 06:37:00,
2013-03-07 01:42:00,40.6,32.0,29.93,NW,317,5.0,13.0,71,0.00,,,0.00,meteohub,2013-03-07 06:42:00,
2013-03-07 01:47:00,40.8,31.8,29.93,NNW,337,7.0,13.0,70,0.00,,,0.00,meteohub,2013-03-07 06:47:00,
2013-03-07 01:52:00,40.8,31.8,29.93,North,0,10.0,13.0,70,0.00,,,0.00,meteohub,2013-03-07 06:52:00,
2013-03-07 01:57:00,40.8,31.8,29.93,North,359,10.0,16.0,70,0.00,,,0.00,meteohub,2013-03-07 06:57:00,
2013-03-07 02:02:00,40.8,31.8,29.93,NE,44,3.0,16.0,70,0.00,,,0.00,meteohub,2013-03-07 07:02:00,
2013-03-07 02:07:00,40.8,31.5,29.93,North,356,7.0,16.0,69,0.00,,,0.00,meteohub,2013-03-07 07:07:00,
2013-03-07 02:12:00,40.8,31.5,29.93,NNW,348,11.0,14.0,69,0.00,,,0.00,meteohub,2013-03-07 07:12:00,
2013-03-07 02:17:00,40.8,31.1,29.93,NNW,331,5.0,14.0,68,0.00,,,0.00,meteohub,2013-03-07 07:17:00,
2013-03-07 02:22:00,40.8,31.1,29.93,NNW,337,7.0,13.0,68,0.00,,,0.00,meteohub,2013-03-07 07:22:00,
2013-03-07 02:27:00,40.8,31.1,29.92,NNW,338,4.0,14.0,68,0.00,,,0.00,meteohub,2013-03-07 07:27:00,
2013-03-07 02:32:00,40.6,31.3,29.93,NNW,330,11.0,14.0,69,0.00,,,0.00,meteohub,2013-03-07 07:32:00,
2013-03-07 02:37:00,40.6,31.3,29.93,NNE,20,2.0,15.0,69,0.00,,,0.00,meteohub,2013-03-07 07:37:00,
2013-03-07 02:42:00,40.5,30.7,29.93,ENE,58,2.0,15.0,68,0.00,,,0.00,meteohub,2013-03-07 07:42:00,
2013-03-07 02:48:00,40.5,30.7,29.93,NW,311,2.0,15.0,68,0.00,,,0.00,meteohub,2013-03-07 07:48:00,
2013-03-07 02:53:00,40.1,30.7,29.93,WNW,298,5.0,13.0,69,0.00,,,0.00,meteohub,2013-03-07 07:53:00,
2013-03-07 03:01:00,39.9,30.6,29.94,NNW,343,3.0,13.0,69,0.00,,,0.00,meteohub,2013-03-07 08:01:00,
2013-03-07 03:07:00,39.7,30.4,29.94,WNW,298,6.0,13.0,69,0.00,,,0.00,meteohub,2013-03-07 08:07:00,
2013-03-07 03:12:00,39.6,30.6,29.94,NNW,340,6.0,13.0,70,0.00,,,0.00,meteohub,2013-03-07 08:12:00,
2013-03-07 03:17:00,39.6,30.6,29.94,NNW,345,3.0,13.0,70,0.00,,,0.00,meteohub,2013-03-07 08:17:00,
2013-03-07 03:22:00,39.4,30.4,29.95,NNW,333,3.0,10.0,70,0.00,,,0.00,meteohub,2013-03-07 08:22:00,
2013-03-07 03:27:00,39.2,30.2,29.95,NNW,347,5.0,9.0,70,0.00,,,0.00,meteohub,2013-03-07 08:27:00,
2013-03-07 03:32:00,39.2,30.2,29.95,NNW,347,3.0,9.0,70,0.00,,,0.00,meteohub,2013-03-07 08:32:00,
2013-03-07 03:37:00,39.2,30.2,29.95,North,359,6.0,9.0,70,0.00,,,0.00,meteohub,2013-03-07 08:37:00,
2013-03-07 03:42:00,39.2,29.8,29.96,NW,322,3.0,10.0,69,0.00,,,0.00,meteohub,2013-03-07 08:42:00,
2013-03-07 03:48:00,39.4,30.0,29.96,NW,305,6.0,10.0,69,0.00,,,0.00,meteohub,2013-03-07 08:48:00,
2013-03-07 03:56:00,39.4,30.0,29.96,NNW,329,8.0,11.0,69,0.00,,,0.00,meteohub,2013-03-07 08:56:00,
2013-03-07 04:01:00,39.2,29.8,29.96,North,4,4.0,13.0,69,0.00,,,0.00,meteohub,2013-03-07 09:01:00,
2013-03-07 04:06:00,39.2,29.8,29.96,NW,325,4.0,13.0,69,0.00,,,0.00,meteohub,2013-03-07 09:06:00,
2013-03-07 04:11:00,39.2,29.8,29.96,NNW,329,5.0,13.0,69,0.00,,,0.00,meteohub,2013-03-07 09:11:00,
2013-03-07 04:16:00,39.0,29.7,29.96,NNE,13,3.0,13.0,69,0.00,,,0.00,meteohub,2013-03-07 09:16:00,
2013-03-07 04:22:00,39.0,29.7,29.96,ENE,59,5.0,13.0,69,0.00,,,0.00,meteohub,2013-03-07 09:22:00,
2013-03-07 04:27:00,39.0,29.3,29.96,NNW,345,3.0,13.0,68,0.00,,,0.00,meteohub,2013-03-07 09:27:00,
2013-03-07 04:32:00,38.8,29.1,29.96,North,354,8.0,11.0,68,0.00,,,0.00,meteohub,2013-03-07 09:32:00,
2013-03-07 04:37:00,38.8,29.1,29.96,NNW,345,5.0,12.0,68,0.00,,,0.00,meteohub,2013-03-07 09:37:00,
2013-03-07 04:42:00,38.8,29.1,29.96,NE,34,4.0,12.0,68,0.00,,,0.00,meteohub,2013-03-07 09:42:00,
2013-03-07 04:47:00,38.8,29.1,29.96,North,350,7.0,12.0,68,0.00,,,0.00,meteohub,2013-03-07 09:47:00,
2013-03-07 04:52:00,38.8,29.1,29.97,NNW,332,4.0,13.0,68,0.00,,,0.00,meteohub,2013-03-07 09:52:00,
2013-03-07 04:57:00,38.8,29.1,29.97,NW,312,4.0,13.0,68,0.00,,,0.00,meteohub,2013-03-07 09:57:00,
2013-03-07 05:02:00,38.7,28.9,29.97,NNW,342,5.0,13.0,68,0.00,,,0.00,meteohub,2013-03-07 10:02:00,
2013-03-07 05:07:00,38.7,28.9,29.97,NW,318,7.0,11.0,68,0.00,,,0.00,meteohub,2013-03-07 10:07:00,
2013-03-07 05:12:00,38.7,28.9,29.98,NNW,345,4.0,9.0,68,0.00,,,0.00,meteohub,2013-03-07 10:12:00,
2013-03-07 05:17:00,38.7,29.3,29.98,NW,322,2.0,9.0,69,0.00,,,0.00,meteohub,2013-03-07 10:17:00,
2013-03-07 05:22:00,38.7,29.3,29.98,NNW,338,4.0,9.0,69,0.00,,,0.00,meteohub,2013-03-07 10:22:00,
2013-03-07 05:27:00,38.7,29.3,29.98,North,354,3.0,8.0,69,0.00,,,0.00,meteohub,2013-03-07 10:27:00,
2013-03-07 05:32:00,38.8,29.5,29.98,NNW,347,6.0,9.0,69,0.00,,,0.00,meteohub,2013-03-07 10:32:00,
2013-03-07 05:37:00,38.8,29.5,29.98,WNW,283,2.0,9.0,69,0.00,,,0.00,meteohub,2013-03-07 10:37:00,
2013-03-07 05:42:00,38.8,29.8,29.99,NW,312,6.0,9.0,70,0.00,,,0.00,meteohub,2013-03-07 10:42:00,
2013-03-07 05:47:00,38.7,29.7,29.99,NNW,329,4.0,9.0,70,0.00,,,0.00,meteohub,2013-03-07 10:47:00,
2013-03-07 05:52:00,38.7,29.7,29.99,NNW,338,3.0,7.0,70,0.00,,,0.00,meteohub,2013-03-07 10:52:00,
2013-03-07 05:59:00,38.5,29.5,29.99,NW,321,4.0,7.0,70,0.00,,,0.00,meteohub,2013-03-07 10:59:00,
2013-03-07 06:06:00,38.5,29.8,29.99,NNW,328,2.0,7.0,71,0.00,,,0.00,meteohub,2013-03-07 11:06:00,
2013-03-07 06:14:00,38.5,29.8,29.99,NNW,342,4.0,9.0,71,0.00,,,0.00,meteohub,2013-03-07 11:14:00,
2013-03-07 06:19:00,38.7,29.3,29.99,NNW,345,3.0,9.0,69,0.00,,,0.00,meteohub,2013-03-07 11:19:00,
2013-03-07 06:24:00,38.8,29.1,29.99,NW,314,2.0,8.0,68,0.00,,,0.00,meteohub,2013-03-07 11:24:00,
2013-03-07 06:30:00,38.8,29.1,29.99,NNE,32,8.0,8.0,68,0.00,,,0.00,meteohub,2013-03-07 11:30:00,
2013-03-07 06:35:00,39.0,28.9,29.99,NNW,345,3.0,9.0,67,0.00,,,0.00,meteohub,2013-03-07 11:35:00,
2013-03-07 06:40:00,39.0,29.3,29.99,NW,325,5.0,12.0,68,0.00,,,0.00,meteohub,2013-03-07 11:40:00,
2013-03-07 06:45:00,39.0,29.3,29.99,NNW,329,6.0,12.0,68,0.00,,,0.00,meteohub,2013-03-07 11:45:00,
2013-03-07 06:50:00,39.4,29.7,29.99,North,10,3.0,9.0,68,0.00,,,0.00,meteohub,2013-03-07 11:50:00,
2013-03-07 06:55:00,39.4,29.7,29.99,NNW,333,3.0,10.0,68,0.00,,,0.00,meteohub,2013-03-07 11:55:00,
2013-03-07 07:01:00,39.4,29.7,29.99,NNW,330,5.0,10.0,68,0.00,,,0.00,meteohub,2013-03-07 12:01:00,
2013-03-07 07:06:00,39.4,29.3,29.99,NW,304,6.0,10.0,67,0.00,,,0.00,meteohub,2013-03-07 12:06:00,
2013-03-07 07:11:00,39.7,29.3,30.00,North,9,3.0,12.0,66,0.00,,,0.00,meteohub,2013-03-07 12:11:00,
2013-03-07 07:16:00,39.7,29.3,30.00,North,1,6.0,12.0,66,0.00,,,0.00,meteohub,2013-03-07 12:16:00,
2013-03-07 07:21:00,39.9,29.5,30.00,NNW,338,7.0,9.0,66,0.00,,,0.00,meteohub,2013-03-07 12:21:00,
2013-03-07 07:26:00,39.9,28.8,30.00,NW,307,6.0,9.0,64,0.00,,,0.00,meteohub,2013-03-07 12:26:00,
2013-03-07 07:32:00,40.1,28.6,30.00,NE,51,7.0,9.0,63,0.00,,,0.00,meteohub,2013-03-07 12:32:00,
2013-03-07 07:37:00,40.1,28.0,30.00,WNW,297,4.0,9.0,62,0.00,,,0.00,meteohub,2013-03-07 12:37:00,
2013-03-07 07:42:00,40.3,27.9,30.00,NNW,340,5.0,14.0,61,0.00,,,0.00,meteohub,2013-03-07 12:42:00,
2013-03-07 07:47:00,40.5,28.0,30.01,NW,307,4.0,14.0,61,0.00,,,0.00,meteohub,2013-03-07 12:47:00,
2013-03-07 07:52:00,40.6,27.9,30.01,NNE,16,10.0,14.0,60,0.00,,,0.00,meteohub,2013-03-07 12:52:00,
2013-03-07 07:59:00,40.8,27.7,30.01,NNE,25,2.0,14.0,59,0.00,,,0.00,meteohub,2013-03-07 12:59:00,
2013-03-07 08:05:00,41.2,27.5,30.01,NW,325,7.0,14.0,58,0.00,,,0.00,meteohub,2013-03-07 13:05:00,
2013-03-07 08:10:00,41.7,28.0,30.01,NNW,343,3.0,14.0,58,0.00,,,0.00,meteohub,2013-03-07 13:10:00,
2013-03-07 08:15:00,41.7,27.7,30.01,NW,311,5.0,10.0,57,0.00,,,0.00,meteohub,2013-03-07 13:15:00,
2013-03-07 08:22:00,42.3,28.0,30.02,NNW,329,4.0,12.0,57,0.00,,,0.00,meteohub,2013-03-07 13:22:00,
2013-03-07 08:27:00,42.1,27.5,30.02,WNW,290,6.0,12.0,56,0.00,,,0.00,meteohub,2013-03-07 13:27:00,
2013-03-07 08:34:00,42.1,27.1,30.02,North,352,11.0,12.0,55,0.00,,,0.00,meteohub,2013-03-07 13:34:00,
2013-03-07 08:42:00,42.4,27.9,30.02,NNW,333,5.0,14.0,56,0.00,,,0.00,meteohub,2013-03-07 13:42:00,
2013-03-07 08:47:00,42.4,27.5,30.02,North,350,10.0,14.0,55,0.00,,,0.00,meteohub,2013-03-07 13:47:00,
2013-03-07 08:52:00,42.6,28.0,30.02,NW,326,5.0,15.0,56,0.00,,,0.00,meteohub,2013-03-07 13:52:00,
2013-03-07 08:57:00,43.0,27.0,30.02,NW,310,9.0,15.0,53,0.00,,,0.00,meteohub,2013-03-07 13:57:00,
2013-03-07 09:02:00,42.6,26.6,30.03,NW,322,8.0,16.0,53,0.00,,,0.00,meteohub,2013-03-07 14:02:00,
2013-03-07 09:07:00,43.2,27.7,30.03,NNW,331,8.0,16.0,54,0.00,,,0.00,meteohub,2013-03-07 14:07:00,
2013-03-07 09:12:00,43.3,27.3,30.03,North,1,6.0,16.0,53,0.00,,,0.00,meteohub,2013-03-07 14:12:00,
2013-03-07 09:17:00,43.2,26.2,30.03,NNW,336,11.0,15.0,51,0.00,,,0.00,meteohub,2013-03-07 14:17:00,
2013-03-07 09:22:00,43.2,26.8,30.03,North,1,9.0,21.0,52,0.00,,,0.00,meteohub,2013-03-07 14:22:00,
2013-03-07 09:27:00,43.0,26.6,30.03,NNW,345,6.0,21.0,52,0.00,,,0.00,meteohub,2013-03-07 14:27:00,
2013-03-07 09:32:00,43.2,26.2,30.03,NE,43,17.0,21.0,51,0.00,,,0.00,meteohub,2013-03-07 14:32:00,
2013-03-07 09:37:00,43.5,26.6,30.03,NNW,340,4.0,18.0,51,0.00,,,0.00,meteohub,2013-03-07 14:37:00,
2013-03-07 09:42:00,44.1,27.1,30.03,NNW,345,6.0,18.0,51,0.00,,,0.00,meteohub,2013-03-07 14:42:00,
2013-03-07 09:47:00,43.9,25.9,30.03,NW,312,12.0,18.0,49,0.00,,,0.00,meteohub,2013-03-07 14:47:00,
2013-03-07 09:52:00,44.2,27.3,30.04,NW,315,11.0,16.0,51,0.00,,,0.00,meteohub,2013-03-07 14:52:00,
2013-03-07 09:57:00,44.4,25.9,30.04,NNW,343,11.0,15.0,48,0.00,,,0.00,meteohub,2013-03-07 14:57:00,
2013-03-07 10:02:00,44.4,26.4,30.04,NNW,340,12.0,15.0,49,0.00,,,0.00,meteohub,2013-03-07 15:02:00,
2013-03-07 10:07:00,44.8,26.2,30.03,North,356,10.0,21.0,48,0.00,,,0.00,meteohub,2013-03-07 15:07:00,
2013-03-07 10:12:00,45.0,26.4,30.04,North,9,7.0,21.0,48,0.00,,,0.00,meteohub,2013-03-07 15:12:00,
2013-03-07 10:17:00,45.0,26.4,30.03,NW,310,13.0,19.0,48,0.00,,,0.00,meteohub,2013-03-07 15:17:00,
2013-03-07 10:22:00,45.3,26.8,30.04,NNE,29,8.0,18.0,48,0.00,,,0.00,meteohub,2013-03-07 15:22:00,
2013-03-07 10:27:00,45.5,26.4,30.04,NNW,328,10.0,18.0,47,0.00,,,0.00,meteohub,2013-03-07 15:27:00,
2013-03-07 10:32:00,45.9,26.8,30.04,NW,320,11.0,21.0,47,0.00,,,0.00,meteohub,2013-03-07 15:32:00,
2013-03-07 10:37:00,45.5,25.3,30.03,NNW,329,14.0,21.0,45,0.00,,,0.00,meteohub,2013-03-07 15:37:00,
2013-03-07 10:42:00,45.5,26.4,30.04,North,352,7.0,22.0,47,0.00,,,0.00,meteohub,2013-03-07 15:42:00,
2013-03-07 10:47:00,45.9,26.8,30.03,NW,326,6.0,22.0,47,0.00,,,0.00,meteohub,2013-03-07 15:47:00,
2013-03-07 10:52:00,46.0,25.9,30.03,NNW,335,13.0,22.0,45,0.00,,,0.00,meteohub,2013-03-07 15:52:00,
2013-03-07 10:57:00,45.7,25.0,30.03,NNW,336,13.0,26.0,44,0.00,,,0.00,meteohub,2013-03-07 15:57:00,
2013-03-07 11:02:00,45.7,25.5,30.03,NW,324,16.0,26.0,45,0.00,,,0.00,meteohub,2013-03-07 16:02:00,
2013-03-07 11:10:00,46.0,25.9,30.04,North,0,17.0,26.0,45,0.00,,,0.00,meteohub,2013-03-07 16:10:00,
2013-03-07 11:17:00,46.6,26.4,30.04,North,5,12.0,22.0,45,0.00,,,0.00,meteohub,2013-03-07 16:17:00,
2013-03-07 11:22:00,46.8,26.6,30.03,NNW,342,10.0,22.0,45,0.00,,,0.00,meteohub,2013-03-07 16:22:00,
2013-03-07 11:27:00,46.8,26.6,30.03,NNW,330,11.0,19.0,45,0.00,,,0.00,meteohub,2013-03-07 16:27:00,
2013-03-07 11:34:00,46.9,26.8,30.03,NW,319,7.0,19.0,45,0.00,,,0.00,meteohub,2013-03-07 16:34:00,
2013-03-07 11:42:00,47.7,27.3,30.03,WNW,295,7.0,18.0,45,0.00,,,0.00,meteohub,2013-03-07 16:42:00,
2013-03-07 11:47:00,47.8,27.0,30.03,NNE,15,12.0,16.0,44,0.00,,,0.00,meteohub,2013-03-07 16:47:00,
2013-03-07 11:52:00,47.8,27.0,30.03,North,355,8.0,16.0,44,0.00,,,0.00,meteohub,2013-03-07 16:52:00,
2013-03-07 11:57:00,47.7,26.8,30.03,NNW,343,11.0,14.0,44,0.00,,,0.00,meteohub,2013-03-07 16:57:00,
2013-03-07 12:02:00,47.5,26.1,30.03,WNW,283,15.0,15.0,43,0.00,,,0.00,meteohub,2013-03-07 17:02:00,
2013-03-07 12:08:00,47.5,26.6,30.03,NW,325,7.0,21.0,44,0.00,,,0.00,meteohub,2013-03-07 17:08:00,
2013-03-07 12:13:00,47.7,26.8,30.03,NW,314,14.0,21.0,44,0.00,,,0.00,meteohub,2013-03-07 17:13:00,
2013-03-07 12:20:00,48.4,27.0,30.03,NNW,336,11.0,21.0,43,0.00,,,0.00,meteohub,2013-03-07 17:20:00,
2013-03-07 12:27:00,48.6,27.1,30.02,NNE,15,8.0,20.0,43,0.00,,,0.00,meteohub,2013-03-07 17:27:00,
2013-03-07 12:32:00,48.7,26.6,30.02,NE,48,7.0,19.0,42,0.00,,,0.00,meteohub,2013-03-07 17:32:00,
2013-03-07 12:38:00,48.6,27.1,30.02,North,6,15.0,19.0,43,0.00,,,0.00,meteohub,2013-03-07 17:38:00,
2013-03-07 12:43:00,48.7,27.3,30.02,WNW,297,2.0,19.0,43,0.00,,,0.00,meteohub,2013-03-07 17:43:00,
2013-03-07 12:48:00,48.7,27.3,30.02,NE,34,9.0,19.0,43,0.00,,,0.00,meteohub,2013-03-07 17:48:00,
2013-03-07 12:54:00,49.1,27.0,30.02,North,357,14.0,19.0,42,0.00,,,0.00,meteohub,2013-03-07 17:54:00,
2013-03-07 13:00:00,48.7,26.6,30.02,NNW,328,7.0,19.0,42,0.00,,,0.00,meteohub,2013-03-07 18:00:00,
2013-03-07 13:05:00,48.9,26.8,30.01,NNW,338,8.0,19.0,42,0.00,,,0.00,meteohub,2013-03-07 18:05:00,
2013-03-07 13:10:00,48.9,26.2,30.01,West,273,9.0,18.0,41,0.00,,,0.00,meteohub,2013-03-07 18:10:00,
2013-03-07 13:17:00,49.5,26.8,30.01,NNE,16,9.0,18.0,41,0.00,,,0.00,meteohub,2013-03-07 18:17:00,
2013-03-07 13:22:00,49.3,26.1,30.01,NNW,329,14.0,18.0,40,0.00,,,0.00,meteohub,2013-03-07 18:22:00,
2013-03-07 13:27:00,48.6,25.9,30.01,NW,314,12.0,17.0,41,0.00,,,0.00,meteohub,2013-03-07 18:27:00,
2013-03-07 13:32:00,49.5,26.8,30.01,NNW,333,8.0,19.0,41,0.00,,,0.00,meteohub,2013-03-07 18:32:00,
2013-03-07 13:37:00,49.3,26.6,30.01,NNW,345,11.0,19.0,41,0.00,,,0.00,meteohub,2013-03-07 18:37:00,
2013-03-07 13:42:00,48.9,26.2,30.01,NNW,332,6.0,17.0,41,0.00,,,0.00,meteohub,2013-03-07 18:42:00,
2013-03-07 13:47:00,48.6,25.9,30.01,NNE,18,13.0,23.0,41,0.00,,,0.00,meteohub,2013-03-07 18:47:00,
2013-03-07 13:55:00,48.9,26.8,30.01,NNW,333,7.0,23.0,42,0.00,,,0.00,meteohub,2013-03-07 18:55:00,
2013-03-07 14:00:00,49.6,27.0,30.01,WNW,302,10.0,23.0,41,0.00,,,0.00,meteohub,2013-03-07 19:00:00,
2013-03-07 14:05:00,49.8,26.4,30.00,NNW,328,5.0,17.0,40,0.00,,,0.00,meteohub,2013-03-07 19:05:00,
2013-03-07 14:12:00,50.2,26.8,30.00,NW,309,8.0,16.0,40,0.00,,,0.00,meteohub,2013-03-07 19:12:00,
2013-03-07 14:17:00,49.5,26.1,30.00,NNW,338,8.0,20.0,40,0.00,,,0.00,meteohub,2013-03-07 19:17:00,
2013-03-07 14:22:00,49.8,26.4,30.00,North,6,5.0,20.0,40,0.00,,,0.00,meteohub,2013-03-07 19:22:00,
2013-03-07 14:27:00,49.8,26.4,30.00,West,278,7.0,20.0,40,0.00,,,0.00,meteohub,2013-03-07 19:27:00,
2013-03-07 14:33:00,49.3,26.6,30.01,ENE,77,14.0,21.0,41,0.00,,,0.00,meteohub,2013-03-07 19:33:00,
2013-03-07 14:38:00,48.7,26.1,30.01,NNW,338,7.0,21.0,41,0.00,,,0.00,meteohub,2013-03-07 19:38:00,
2013-03-07 14:43:00,48.9,26.2,30.01,NNW,348,9.0,18.0,41,0.00,,,0.00,meteohub,2013-03-07 19:43:00,
2013-03-07 14:48:00,48.7,26.1,30.00,WSW,254,10.0,17.0,41,0.00,,,0.00,meteohub,2013-03-07 19:48:00,
2013-03-07 14:53:00,48.7,26.1,30.00,NNW,329,16.0,22.0,41,0.00,,,0.00,meteohub,2013-03-07 19:53:00,
2013-03-07 14:58:00,48.9,26.2,30.01,NNW,335,10.0,22.0,41,0.00,,,0.00,meteohub,2013-03-07 19:58:00,
2013-03-07 15:03:00,48.7,26.1,30.01,NNW,333,12.0,22.0,41,0.00,,,0.00,meteohub,2013-03-07 20:03:00,
2013-03-07 15:08:00,48.7,26.1,30.01,NNW,328,12.0,18.0,41,0.00,,,0.00,meteohub,2013-03-07 20:08:00,
2013-03-07 15:13:00,48.7,26.1,30.01,WNW,300,6.0,18.0,41,0.00,,,0.00,meteohub,2013-03-07 20:13:00,
2013-03-07 15:19:00,48.6,25.9,30.01,NW,323,4.0,21.0,41,0.00,,,0.00,meteohub,2013-03-07 20:19:00,
2013-03-07 15:24:00,48.7,26.1,30.01,NW,304,10.0,21.0,41,0.00,,,0.00,meteohub,2013-03-07 20:24:00,
2013-03-07 15:29:00,48.9,26.2,30.01,NNW,331,10.0,21.0,41,0.00,,,0.00,meteohub,2013-03-07 20:29:00,
2013-03-07 15:36:00,48.7,26.1,30.00,WNW,293,12.0,17.0,41,0.00,,,0.00,meteohub,2013-03-07 20:36:00,
2013-03-07 15:41:00,48.4,25.7,30.01,NNW,334,11.0,19.0,41,0.00,,,0.00,meteohub,2013-03-07 20:41:00,
2013-03-07 15:46:00,48.7,26.6,30.01,North,354,5.0,19.0,42,0.00,,,0.00,meteohub,2013-03-07 20:46:00,
2013-03-07 15:51:00,48.9,26.2,30.01,NW,326,13.0,19.0,41,0.00,,,0.00,meteohub,2013-03-07 20:51:00,
2013-03-07 15:56:00,48.7,26.1,30.01,NW,316,3.0,22.0,41,0.00,,,0.00,meteohub,2013-03-07 20:56:00,
2013-03-07 16:01:00,48.9,26.2,30.01,NNE,32,5.0,22.0,41,0.00,,,0.00,meteohub,2013-03-07 21:01:00,
2013-03-07 16:06:00,49.3,26.6,30.01,NNW,333,11.0,22.0,41,0.00,,,0.00,meteohub,2013-03-07 21:06:00,
2013-03-07 16:12:00,49.1,26.4,30.01,North,353,11.0,18.0,41,0.00,,,0.00,meteohub,2013-03-07 21:12:00,
2013-03-07 16:17:00,49.3,27.1,30.01,NNW,327,2.0,17.0,42,0.00,,,0.00,meteohub,2013-03-07 21:17:00,
2013-03-07 16:22:00,49.5,26.8,30.01,NNW,345,8.0,17.0,41,0.00,,,0.00,meteohub,2013-03-07 21:22:00,
2013-03-07 16:27:00,49.3,26.1,30.02,NNW,341,10.0,15.0,40,0.00,,,0.00,meteohub,2013-03-07 21:27:00,
2013-03-07 16:32:00,48.7,26.1,30.01,NW,309,10.0,23.0,41,0.00,,,0.00,meteohub,2013-03-07 21:32:00,
2013-03-07 16:37:00,48.6,26.4,30.01,North,353,12.0,23.0,42,0.00,,,0.00,meteohub,2013-03-07 21:37:00,
2013-03-07 16:44:00,48.0,26.1,30.02,NNW,328,12.0,22.0,42,0.00,,,0.00,meteohub,2013-03-07 21:44:00,
2013-03-07 16:50:00,48.4,26.4,30.02,NNW,331,13.0,22.0,42,0.00,,,0.00,meteohub,2013-03-07 21:50:00,
2013-03-07 16:55:00,48.0,26.6,30.02,NW,326,22.0,24.0,43,0.00,,,0.00,meteohub,2013-03-07 21:55:00,
2013-03-07 17:01:00,47.8,26.4,30.02,North,349,15.0,24.0,43,0.00,,,0.00,meteohub,2013-03-07 22:01:00,
2013-03-07 17:07:00,47.7,26.8,30.02,NW,323,10.0,24.0,44,0.00,,,0.00,meteohub,2013-03-07 22:07:00,
2013-03-07 17:12:00,47.7,26.8,30.02,WNW,302,12.0,23.0,44,0.00,,,0.00,meteohub,2013-03-07 22:12:00,
2013-03-07 17:17:00,47.8,27.0,30.02,NNE,17,14.0,23.0,44,0.00,,,0.00,meteohub,2013-03-07 22:17:00,
2013-03-07 17:22:00,47.8,27.0,30.03,NNW,347,13.0,23.0,44,0.00,,,0.00,meteohub,2013-03-07 22:22:00,
2013-03-07 17:27:00,48.0,27.1,30.02,NW,321,10.0,19.0,44,0.00,,,0.00,meteohub,2013-03-07 22:27:00,
2013-03-07 17:32:00,48.0,27.1,30.03,NW,321,4.0,21.0,44,0.00,,,0.00,meteohub,2013-03-07 22:32:00,
2013-03-07 17:37:00,48.0,27.7,30.03,NE,53,8.0,21.0,45,0.00,,,0.00,meteohub,2013-03-07 22:37:00,
2013-03-07 17:42:00,47.8,27.5,30.03,NNW,338,10.0,21.0,45,0.00,,,0.00,meteohub,2013-03-07 22:42:00,
2013-03-07 17:47:00,47.8,27.5,30.03,NNW,330,6.0,17.0,45,0.00,,,0.00,meteohub,2013-03-07 22:47:00,
2013-03-07 17:52:00,47.7,27.9,30.04,NNW,340,12.0,17.0,46,0.00,,,0.00,meteohub,2013-03-07 22:52:00,
2013-03-07 17:57:00,47.7,28.4,30.04,NW,326,11.0,16.0,47,0.00,,,0.00,meteohub,2013-03-07 22:57:00,
2013-03-07 18:02:00,47.5,28.2,30.04,North,1,7.0,16.0,47,0.00,,,0.00,meteohub,2013-03-07 23:02:00,
2013-03-07 18:07:00,47.5,28.8,30.04,NNW,342,6.0,16.0,48,0.00,,,0.00,meteohub,2013-03-07 23:07:00,
2013-03-07 18:11:00,47.1,28.4,30.04,NNE,25,9.0,14.0,48,0.00,,,0.00,meteohub,2013-03-07 23:11:00,
2013-03-07 18:17:00,46.9,28.2,30.04,North,353,5.0,14.0,48,0.00,,,0.00,meteohub,2013-03-07 23:17:00,
2013-03-07 18:22:00,46.9,28.8,30.04,NNW,338,6.0,14.0,49,0.00,,,0.00,meteohub,2013-03-07 23:22:00,
2013-03-07 18:27:00,46.8,28.6,30.05,NNW,336,9.0,15.0,49,0.00,,,0.00,meteohub,2013-03-07 23:27:00,
2013-03-07 18:32:00,46.8,28.6,30.05,NW,322,8.0,15.0,49,0.00,,,0.00,meteohub,2013-03-07 23:32:00,
2013-03-07 18:37:00,46.6,28.9,30.05,WNW,290,11.0,15.0,50,0.00,,,0.00,meteohub,2013-03-07 23:37:00,
2013-03-07 18:42:00,46.4,28.8,30.06,NNW,343,16.0,16.0,50,0.00,,,0.00,meteohub,2013-03-07 23:42:00,
2013-03-07 18:47:00,46.2,28.6,30.06,NW,318,6.0,19.0,50,0.00,,,0.00,meteohub,2013-03-07 23:47:00,
2013-03-07 18:52:00,46.0,28.9,30.06,NW,304,2.0,19.0,51,0.00,,,0.00,meteohub,2013-03-07 23:52:00,
2013-03-07 18:57:00,45.9,28.2,30.06,NNW,343,10.0,19.0,50,0.00,,,0.00,meteohub,2013-03-07 23:57:00,
2013-03-07 19:02:00,45.9,28.8,30.06,NW,315,6.0,16.0,51,0.00,,,0.00,meteohub,2013-03-08 00:02:00,
2013-03-07 19:07:00,45.7,28.6,30.06,NNW,336,7.0,16.0,51,0.00,,,0.00,meteohub,2013-03-08 00:07:00,
2013-03-07 19:12:00,45.7,29.1,30.06,WNW,289,15.0,16.0,52,0.00,,,0.00,meteohub,2013-03-08 00:12:00,
2013-03-07 19:17:00,45.5,28.9,30.06,West,273,4.0,15.0,52,0.00,,,0.00,meteohub,2013-03-08 00:17:00,
2013-03-07 19:22:00,45.3,29.1,30.06,NW,318,4.0,15.0,53,0.00,,,0.00,meteohub,2013-03-08 00:22:00,
2013-03-07 19:27:00,45.3,28.8,30.06,NNW,338,4.0,15.0,52,0.00,,,0.00,meteohub,2013-03-08 00:27:00,
2013-03-07 19:32:00,45.3,28.8,30.06,NW,315,9.0,18.0,52,0.00,,,0.00,meteohub,2013-03-08 00:32:00,
2013-03-07 19:37:00,45.1,28.9,30.06,NNW,328,8.0,18.0,53,0.00,,,0.00,meteohub,2013-03-08 00:37:00,
2013-03-07 19:42:00,45.1,28.9,30.06,NNW,338,6.0,18.0,53,0.00,,,0.00,meteohub,2013-03-08 00:42:00,
2013-03-07 19:47:00,45.1,28.9,30.07,NW,323,7.0,17.0,53,0.00,,,0.00,meteohub,2013-03-08 00:47:00,
2013-03-07 19:52:00,45.0,29.3,30.07,North,350,2.0,11.0,54,0.00,,,0.00,meteohub,2013-03-08 00:52:00,
2013-03-07 19:57:00,45.0,29.3,30.07,NW,322,4.0,11.0,54,0.00,,,0.00,meteohub,2013-03-08 00:57:00,
2013-03-07 20:02:00,44.8,29.7,30.07,West,278,4.0,12.0,55,0.00,,,0.00,meteohub,2013-03-08 01:02:00,
2013-03-07 20:07:00,44.4,29.7,30.07,WNW,298,3.0,16.0,56,0.00,,,0.00,meteohub,2013-03-08 01:07:00,
2013-03-07 20:12:00,44.4,29.7,30.07,NW,326,5.0,16.0,56,0.00,,,0.00,meteohub,2013-03-08 01:12:00,
2013-03-07 20:17:00,44.4,29.7,30.07,NNW,342,3.0,12.0,56,0.00,,,0.00,meteohub,2013-03-08 01:17:00,
2013-03-07 20:22:00,44.2,29.5,30.07,WNW,290,7.0,16.0,56,0.00,,,0.00,meteohub,2013-03-08 01:22:00,
2013-03-07 20:27:00,44.1,29.8,30.07,North,352,3.0,16.0,57,0.00,,,0.00,meteohub,2013-03-08 01:27:00,
2013-03-07 20:34:00,44.1,29.8,30.07,North,349,7.0,16.0,57,0.00,,,0.00,meteohub,2013-03-08 01:34:00,
2013-03-07 20:42:00,43.9,30.0,30.07,WNW,283,5.0,13.0,58,0.00,,,0.00,meteohub,2013-03-08 01:42:00,
2013-03-07 20:47:00,43.7,29.8,30.07,North,356,8.0,11.0,58,0.00,,,0.00,meteohub,2013-03-08 01:47:00,
2013-03-07 20:52:00,43.5,29.7,30.07,North,359,6.0,11.0,58,0.00,,,0.00,meteohub,2013-03-08 01:52:00,
2013-03-07 20:57:00,43.5,30.2,30.07,NNW,329,8.0,11.0,59,0.00,,,0.00,meteohub,2013-03-08 01:57:00,
2013-03-07 21:02:00,43.5,30.2,30.07,NNW,330,2.0,11.0,59,0.00,,,0.00,meteohub,2013-03-08 02:02:00,
2013-03-07 21:07:00,43.5,30.2,30.07,NNW,340,7.0,12.0,59,0.00,,,0.00,meteohub,2013-03-08 02:07:00,
2013-03-07 21:12:00,43.5,30.2,30.07,NNW,342,5.0,12.0,59,0.00,,,0.00,meteohub,2013-03-08 02:12:00,
2013-03-07 21:17:00,43.3,30.0,30.07,NW,319,3.0,12.0,59,0.00,,,0.00,meteohub,2013-03-08 02:17:00,
2013-03-07 21:23:00,43.3,30.0,30.07,NNW,329,1.0,12.0,59,0.00,,,0.00,meteohub,2013-03-08 02:23:00,
2013-03-07 21:30:00,43.2,30.2,30.07,WNW,284,9.0,12.0,60,0.00,,,0.00,meteohub,2013-03-08 02:30:00,
2013-03-07 21:37:00,43.2,30.2,30.07,WNW,288,8.0,10.0,60,0.00,,,0.00,meteohub,2013-03-08 02:37:00,
2013-03-07 21:42:00,43.0,30.0,30.07,NW,307,4.0,14.0,60,0.00,,,0.00,meteohub,2013-03-08 02:42:00,
2013-03-07 21:47:00,43.0,30.0,30.07,NNW,334,8.0,14.0,60,0.00,,,0.00,meteohub,2013-03-08 02:47:00,
2013-03-07 21:52:00,42.8,30.2,30.07,North,9,2.0,11.0,61,0.00,,,0.00,meteohub,2013-03-08 02:52:00,
2013-03-07 21:57:00,42.6,30.2,30.07,WNW,288,9.0,11.0,61,0.00,,,0.00,meteohub,2013-03-08 02:57:00,
2013-03-07 22:02:00,42.6,30.2,30.07,NNW,339,7.0,11.0,61,0.00,,,0.00,meteohub,2013-03-08 03:02:00,
2013-03-07 22:07:00,42.6,30.2,30.07,WNW,283,5.0,14.0,61,0.00,,,0.00,meteohub,2013-03-08 03:07:00,
2013-03-07 22:12:00,42.4,30.4,30.07,NW,325,3.0,14.0,62,0.00,,,0.00,meteohub,2013-03-08 03:12:00,
2013-03-07 22:17:00,42.4,30.4,30.07,WNW,284,3.0,14.0,62,0.00,,,0.00,meteohub,2013-03-08 03:17:00,
2013-03-07 22:22:00,42.3,30.2,30.07,NNE,18,5.0,14.0,62,0.00,,,0.00,meteohub,2013-03-08 03:22:00,
2013-03-07 22:27:00,42.3,30.2,30.07,NNW,331,3.0,10.0,62,0.00,,,0.00,meteohub,2013-03-08 03:27:00,
2013-03-07 22:32:00,42.1,30.4,30.07,NNW,347,1.0,10.0,63,0.00,,,0.00,meteohub,2013-03-08 03:32:00,
2013-03-07 22:37:00,42.1,30.4,30.07,NW,321,6.0,10.0,63,0.00,,,0.00,meteohub,2013-03-08 03:37:00,
2013-03-07 22:42:00,41.7,30.0,30.07,WNW,302,5.0,10.0,63,0.00,,,0.00,meteohub,2013-03-08 03:42:00,
2013-03-07 22:47:00,41.7,30.0,30.07,West,260,4.0,10.0,63,0.00,,,0.00,meteohub,2013-03-08 03:47:00,
2013-03-07 22:52:00,41.5,29.8,30.07,NW,304,8.0,10.0,63,0.00,,,0.00,meteohub,2013-03-08 03:52:00,
2013-03-07 22:57:00,41.5,30.2,30.07,North,357,3.0,8.0,64,0.00,,,0.00,meteohub,2013-03-08 03:57:00,
2013-03-07 23:02:00,41.5,30.2,30.07,WNW,288,2.0,8.0,64,0.00,,,0.00,meteohub,2013-03-08 04:02:00,
2013-03-07 23:07:00,41.5,30.2,30.07,West,267,4.0,8.0,64,0.00,,,0.00,meteohub,2013-03-08 04:07:00,
2013-03-07 23:12:00,41.5,30.2,30.07,NW,305,6.0,9.0,64,0.00,,,0.00,meteohub,2013-03-08 04:12:00,
2013-03-07 23:17:00,41.4,30.0,30.07,NNW,338,5.0,11.0,64,0.00,,,0.00,meteohub,2013-03-08 04:17:00,
2013-03-07 23:22:00,41.4,30.0,30.07,NW,307,9.0,11.0,64,0.00,,,0.00,meteohub,2013-03-08 04:22:00,
2013-03-07 23:27:00,41.4,30.0,30.07,NW,319,2.0,11.0,64,0.00,,,0.00,meteohub,2013-03-08 04:27:00,
2013-03-07 23:32:00,41.4,30.0,30.07,WNW,290,5.0,11.0,64,0.00,,,0.00,meteohub,2013-03-08 04:32:00,
2013-03-07 23:37:00,41.2,30.4,30.07,NW,323,3.0,11.0,65,0.00,,,0.00,meteohub,2013-03-08 04:37:00,
2013-03-07 23:42:00,41.2,30.4,30.07,NNW,335,1.0,8.0,65,0.00,,,0.00,meteohub,2013-03-08 04:42:00,
2013-03-07 23:47:00,41.2,30.4,30.07,WNW,283,4.0,9.0,65,0.00,,,0.00,meteohub,2013-03-08 04:47:00,
2013-03-07 23:52:00,40.8,30.0,30.07,WNW,297,2.0,9.0,65,0.00,,,0.00,meteohub,2013-03-08 04:52:00,
2013-03-07 23:57:00,40.6,29.8,30.07,NW,322,7.0,9.0,65,0.00,,,0.00,meteohub,2013-03-08 04:57:00,